When you browse on this site, cookies collect data to enhance your experience and personalize the content and advertising you see.
Visit our Privacy Policy to learn more. By continuing to use the site, you agree to this use of cookies and data.
EN

Hourly Weather Petrushky

Today, 8 July, Wednesday

Time Temperature Precipitation Wind Pressure Humidity
00:00 +14°C° 0.2 mm 7 mps 742 mmHg 89%
01:00 +14°C° 0.2 mm 7 mps 742 mmHg 88%
02:00 +13°C° 0 mm 5 mps 742 mmHg 86%
03:00 +13°C° 1.1 mm 5 mps 742 mmHg 88%
04:00 +11°C° 1.1 mm 6 mps 743 mmHg 90%
05:00 +11°C° 1.1 mm 6 mps 743 mmHg 91%
06:00 +13°C° 1.2 mm 6 mps 744 mmHg 91%
07:00 +13°C° 1.2 mm 6 mps 744 mmHg 90%
08:00 +13°C° 0 mm 6 mps 744 mmHg 93%
09:00 +15°C° 0.1 mm 6 mps 744 mmHg 87%
10:00 +16°C° 0.1 mm 7 mps 745 mmHg 81%
11:00 +17°C° 0.1 mm 7 mps 745 mmHg 76%
12:00 +17°C° 0.1 mm 7 mps 745 mmHg 73%
13:00 +19°C° 0.1 mm 6 mps 745 mmHg 70%
14:00 +20°C° 0.1 mm 6 mps 746 mmHg 68%
15:00 +20°C° 0.1 mm 6 mps 746 mmHg 67%
16:00 +20°C° 0.1 mm 6 mps 746 mmHg 66%
17:00 +20°C° 0.1 mm 6 mps 746 mmHg 65%
18:00 +19°C° 0 mm 5 mps 746 mmHg 68%
19:00 +18°C° 0 mm 4 mps 747 mmHg 72%
20:00 +15°C° 0 mm 4 mps 747 mmHg 76%
21:00 +16°C° 0 mm 3 mps 747 mmHg 78%
22:00 +14°C° 0 mm 3 mps 747 mmHg 80%
23:00 +13°C° 0 mm 3 mps 748 mmHg 81%

Tomorrow, 9 July, Thursday

Time Temperature Precipitation Wind Pressure Humidity
00:00 +13°C° 0 mm 3 mps 748 mmHg 84%
01:00 +12°C° 0 mm 3 mps 748 mmHg 86%
02:00 +12°C° 0 mm 3 mps 748 mmHg 88%
03:00 +12°C° 0 mm 3 mps 748 mmHg 88%
04:00 +12°C° 0 mm 3 mps 748 mmHg 89%
05:00 +12°C° 0 mm 3 mps 748 mmHg 89%
06:00 +14°C° 0 mm 3 mps 749 mmHg 83%
07:00 +17°C° 0 mm 3 mps 749 mmHg 77%
08:00 +18°C° 0 mm 3 mps 749 mmHg 71%
09:00 +20°C° 0 mm 3 mps 750 mmHg 67%
10:00 +21°C° 0 mm 3 mps 750 mmHg 62%
11:00 +22°C° 0 mm 3 mps 750 mmHg 58%
12:00 +22°C° 0.1 mm 3 mps 750 mmHg 62%
13:00 +21°C° 0.1 mm 4 mps 750 mmHg 66%
14:00 +21°C° 0.1 mm 4 mps 750 mmHg 70%
15:00 +21°C° 0.1 mm 4 mps 750 mmHg 70%
16:00 +21°C° 0.1 mm 3 mps 750 mmHg 70%
17:00 +21°C° 0.1 mm 3 mps 750 mmHg 71%
18:00 +19°C° 0 mm 2 mps 750 mmHg 76%
19:00 +18°C° 0 mm 2 mps 750 mmHg 81%
20:00 +18°C° 0 mm 1 mps 750 mmHg 87%
21:00 +16°C° 0 mm 1 mps 750 mmHg 88%
22:00 +15°C° 0 mm 1 mps 751 mmHg 88%
23:00 +15°C° 0 mm 1 mps 751 mmHg 89%

Day after tomorrow, 10 July, Friday

Time Temperature Precipitation Wind Pressure Humidity
00:00 +15°C° 0 mm 1 mps 751 mmHg 89%
01:00 +14°C° 0 mm 1 mps 751 mmHg 90%
02:00 +14°C° 0 mm 1 mps 751 mmHg 91%
03:00 +13°C° 0 mm 0 mps 751 mmHg 91%
04:00 +13°C° 0 mm 0 mps 751 mmHg 91%
05:00 +13°C° 0 mm 0 mps 751 mmHg 91%
06:00 +15°C° 0 mm 0 mps 751 mmHg 85%
07:00 +17°C° 0 mm 0 mps 752 mmHg 79%
08:00 +21°C° 0 mm 1 mps 752 mmHg 74%
09:00 +22°C° 0 mm 1 mps 752 mmHg 68%
10:00 +23°C° 0 mm 1 mps 752 mmHg 63%
11:00 +24°C° 0 mm 1 mps 752 mmHg 57%
12:00 +25°C° 0 mm 1 mps 752 mmHg 55%
13:00 +25°C° 0 mm 1 mps 752 mmHg 53%
14:00 +26°C° 0 mm 1 mps 751 mmHg 51%
15:00 +26°C° 0 mm 1 mps 751 mmHg 53%
16:00 +26°C° 0 mm 1 mps 751 mmHg 55%
17:00 +26°C° 0 mm 1 mps 751 mmHg 56%
18:00 +24°C° 0 mm 1 mps 751 mmHg 61%
19:00 +23°C° 0 mm 1 mps 751 mmHg 65%
20:00 +20°C° 0 mm 2 mps 751 mmHg 70%
21:00 +19°C° 0 mm 2 mps 751 mmHg 71%
22:00 +19°C° 0 mm 2 mps 751 mmHg 73%
23:00 +18°C° 0 mm 2 mps 751 mmHg 74%

11 July, Saturday

Time Temperature Precipitation Wind Pressure Humidity
00:00 +18°C° 0 mm 2 mps 751 mmHg 74%
01:00 +17°C° 0 mm 2 mps 751 mmHg 74%
02:00 +17°C° 0 mm 2 mps 751 mmHg 74%
03:00 +17°C° 0 mm 2 mps 751 mmHg 76%
04:00 +17°C° 0 mm 2 mps 751 mmHg 78%
05:00 +17°C° 0 mm 2 mps 751 mmHg 81%
06:00 +19°C° 0 mm 2 mps 751 mmHg 77%
07:00 +21°C° 0 mm 3 mps 751 mmHg 73%
08:00 +24°C° 0 mm 3 mps 751 mmHg 69%
09:00 +25°C° 0 mm 3 mps 751 mmHg 65%
10:00 +26°C° 0 mm 3 mps 752 mmHg 61%
11:00 +27°C° 0 mm 3 mps 752 mmHg 57%
12:00 +28°C° 0 mm 3 mps 751 mmHg 56%
13:00 +28°C° 0 mm 3 mps 751 mmHg 55%
14:00 +28°C° 0 mm 3 mps 751 mmHg 53%
15:00 +28°C° 0 mm 3 mps 750 mmHg 55%
16:00 +28°C° 0 mm 3 mps 750 mmHg 56%
17:00 +28°C° 0 mm 3 mps 750 mmHg 57%
18:00 +26°C° 0 mm 2 mps 750 mmHg 62%
19:00 +24°C° 0 mm 2 mps 750 mmHg 66%
20:00 +21°C° 0 mm 2 mps 750 mmHg 71%
21:00 +20°C° 0 mm 2 mps 749 mmHg 69%
22:00 +20°C° 0 mm 2 mps 749 mmHg 68%
23:00 +19°C° 0 mm 2 mps 749 mmHg 67%

12 July, Sunday

Time Temperature Precipitation Wind Pressure Humidity
00:00 +18°C° 0 mm 2 mps 749 mmHg 67%
01:00 +18°C° 0 mm 2 mps 749 mmHg 66%
02:00 +17°C° 0 mm 2 mps 749 mmHg 66%
03:00 +18°C° 0 mm 1 mps 748 mmHg 69%
04:00 +18°C° 0 mm 1 mps 748 mmHg 72%
05:00 +18°C° 0 mm 1 mps 748 mmHg 74%
06:00 +20°C° 0 mm 1 mps 748 mmHg 71%
07:00 +22°C° 0 mm 1 mps 748 mmHg 67%
08:00 +24°C° 0 mm 2 mps 748 mmHg 63%
09:00 +25°C° 0 mm 1 mps 748 mmHg 59%
10:00 +27°C° 0 mm 1 mps 748 mmHg 55%
11:00 +28°C° 0 mm 1 mps 748 mmHg 51%
12:00 +28°C° 0 mm 1 mps 747 mmHg 49%
13:00 +29°C° 0 mm 1 mps 747 mmHg 47%
14:00 +27°C° 0 mm 0 mps 747 mmHg 44%
15:00 +27°C° 0 mm 0 mps 747 mmHg 48%
16:00 +27°C° 0 mm 0 mps 747 mmHg 51%
17:00 +28°C° 0 mm 1 mps 746 mmHg 55%
18:00 +26°C° 0 mm 2 mps 747 mmHg 63%
19:00 +22°C° 0 mm 4 mps 747 mmHg 72%
20:00 +20°C° 0 mm 5 mps 747 mmHg 80%
21:00 +19°C° 0 mm 5 mps 747 mmHg 83%
22:00 +16°C° 0 mm 6 mps 747 mmHg 86%
23:00 +15°C° 0 mm 6 mps 747 mmHg 88%

13 July, Monday

Time Temperature Precipitation Wind Pressure Humidity
00:00 +15°C° 0.1 mm 6 mps 747 mmHg 88%
01:00 +14°C° 0.1 mm 6 mps 747 mmHg 87%
02:00 +14°C° 0.1 mm 6 mps 747 mmHg 87%
03:00 +14°C° 0.9 mm 6 mps 747 mmHg 89%
04:00 +13°C° 0.9 mm 6 mps 747 mmHg 91%
05:00 +13°C° 0.9 mm 6 mps 747 mmHg 94%
06:00 +13°C° 0.6 mm 6 mps 747 mmHg 92%
07:00 +13°C° 0.6 mm 6 mps 747 mmHg 90%
08:00 +12°C° 0.6 mm 7 mps 748 mmHg 89%
09:00 +14°C° 0 mm 6 mps 748 mmHg 84%
10:00 +15°C° 0 mm 6 mps 748 mmHg 79%
11:00 +16°C° 0 mm 6 mps 748 mmHg 74%
12:00 +17°C° 0 mm 6 mps 748 mmHg 69%
13:00 +20°C° 0 mm 6 mps 748 mmHg 65%
14:00 +21°C° 0 mm 6 mps 747 mmHg 61%
15:00 +21°C° 0 mm 6 mps 747 mmHg 61%
16:00 +21°C° 0 mm 5 mps 747 mmHg 61%
17:00 +21°C° 0 mm 5 mps 747 mmHg 61%
18:00 +20°C° 0 mm 5 mps 747 mmHg 67%
19:00 +18°C° 0 mm 4 mps 747 mmHg 73%
20:00 +17°C° 0 mm 3 mps 747 mmHg 79%
21:00 +16°C° 0 mm 3 mps 747 mmHg 81%
22:00 +14°C° 0 mm 3 mps 747 mmHg 83%
23:00 +13°C° 0 mm 3 mps 747 mmHg 84%
Show more